Tracking 30061 objects as of 8-Dec-2024
HD Live streaming from Space Station
objects crossing your sky now

LEMUR-2-DAYWZAGOODDAY

Track LEMUR-2-DAYWZAGOODDAY now!
10-day predictions
LEMUR-2-DAYWZAGOODDAY is classified as:


NORAD ID: 46501
Int'l Code: 2020-068R
Perigee: 246.1 km
Apogee: 254.4 km
Inclination: 97.8 °
Period: 89.4 minutes
Semi major axis: 6621 km
RCS: Unknown
Launch date: September 28, 2020
Source: United States (US)
Launch site: PLESETSK MISSILE AND SPACE COMPLEX (PKMTR)
Your satellite tracking list
Your tracking list is empty




NASA's NSSDC Master Catalog

Two Line Element Set (TLE):
1 46501U 20068R   24342.91872404  .01587993  19165-2  16133-2 0  9994
2 46501  97.7683 329.4208 0006268  63.9088 296.2840 16.11362487232098
Source of the keplerian elements: AFSPC